HULIANWANG DIGUI-37

Satellite information

Favourite Embed

Satellite Type and Status

PAYLOADIN ORBIT

Key statistics

Satellite HULIANWANG DIGUI-37 at a glance.

Uptime

85

Days in orbit

Revolutions

≈ 13.2

Per day

Orbit

LEO

Low Earth Orbit

Inclination

86.5

Latest

Satellite identification and parameters

Extended collection of information and parameters for HULIANWANG DIGUI-37.

Object identification

Identified? True

Debris? False

Object name: HULIANWANG DIGUI-37

International designator: 2025-159C

Object number (NORAD): 64958

Object ID (CCSDS): 64958

Country: PEOPLES REPUBLIC OF CHINA (PRC)

Current information (Y/N): Y

RCS size: LARGE

Orbital parameters

Period: 108.727 minutes

Inclination: 86.4984 deg

SMA: 7546.006 km

Apoapsis: 1168.993 km

Periapsis: 1166.749 km

RAAN: 3.5272 deg

Eccentricy: 0.00014863

Argument of periapsis: 96.8937 deg

Mean anomaly: 263.2366 deg

Mean motion: 13.24424008 rev/day

Mean motion (dot): 0.00000108 rev/day2

B* drag term: 0.00021729295 1/REarth

Two-line elements (TLE)

Creation date: Oct. 20, 2025, 2:10 a.m.

Reference frame: TEME

Reference center: EARTH

Epoch: Oct. 19, 2025, 10:07 p.m. UTC

TLE line 0: 0 HULIANWANG DIGUI-37

TLE line 1: 1 64958U 25159C 25292.92158373 .00000108 00000-0 21729-3 0 9995

TLE line 2: 2 64958 86.4984 3.5272 0001486 96.8937 263.2366 13.24424008 11326

Live tracking on map

Real-time ground track for satellite HULIANWANG DIGUI-37.

In-orbit conjunctions

There are no conjunctions computed for HULIANWANG DIGUI-37, at the moment. Check back to stay up to date, as we update our databases every day.

Go to all conjunctions

Associated space launch

A batch of 5 Low Earth Orbit communication satellites for the Chinese state owned SatNet constellation operated by the China Satellite Network Group. The constellation will eventually consists of 13000 satellites.

HULIANWANG DIGUI-37 was lifted into orbit during the mission ‘Long March 6A | SatNet LEO Group 05’, on board a Long March 6A space rocket.

The launch took place on July 27, 2025, 10:03 a.m. from Launch Complex 9A.

For more information about the launch, click the button.

Launch to space Long March 6A | SatNet LEO Group 05
Long March 6A | SatNet LEO Group 05

Agency: N/A

Status: Launch Successful

Launch date: July 27, 2025, 10:03 a.m. UTC

Rocket: Long March 6A

Launch pad: Launch Complex 9A

Location: Taiyuan Satellite Launch Center, People's Republic of China

...

Latest news about this satellite

There are no fresh news available about this satellite. Check back as we update our databases every day.


Newsletter sign-up

Weekly statistics, charts and insights to help you stay on top of the space industry.